User: anonymous   Login
Location: Oshawa
(43.9000°N, 78.8670°W)
Time: 08:05:22
(UTC-04:00)
Language:

Hubble Space Telescope - Orbit

View from above orbital plane
View from above orbital plane
View from above satellite
View from above satellite

Ground track
Ground track

The orbit data is extracted from the following two-line orbital elements,

1 20580U 90037B   16270.54288959  .00000879  00000-0  43708-4 0  9990
2 20580  28.4703 309.3255 0002619 213.5827 299.0343 15.08510818250435
Epoch (UTC): 26 September 2016 13:01:45
Eccentricity: 0.0002619
inclination: 28.4703°
perigee height: 539 km
apogee height: 542 km
right ascension of ascending node: 309.3255°
argument of perigee: 213.5827°
revolutions per day: 15.08510818
mean anomaly at epoch: 299.0343°
orbit number at epoch: 25043

The dashed part of the orbit path shows where the satellite is in the earth's shadow,  

DLR